Weather in Sovetskaya Gavan

Russia / Khabarovsk Krai     48°57′59″N   140°17′06″E
temp.,
°C
wind,
m/s
gust,
m/s
humid.,
%
clouds,
%
prec.,
mm/h
press.,
hPa
HPBL,
m
19 may, wed
wed1901:00+13ssw335354 0.0 100140
04:00+13s22574 0.0 100127
07:00+14sse22576 0.0 100286
10:00+20ese22435 0.0 1002384
13:00+20ese344270 0.0 1000376
16:00+8ne358496 0.8 1002232
19:00+8ne368991 1.6 1005225
22:00+8nne1196100 2.2 1008154
20 may, thu
thu2001:00+7ne229898 0.6 1008108
04:00+6nne1297100 0.6 1009195
07:00+7ne2494100 0.0 1009327
10:00+9ne228795 0.1 1009359
13:00+13ese3368100 0.0 1006436
16:00+13sse376846 0.0 1001377
19:00+10ene228943 2.6 1003133
22:00+9nne1296100 3.9 100547
21 may, fri
fri2101:00+8nne119945 0.0 100729
04:00+8nne119949 0.0 100826
07:00+6nne2496100 0.1 1011230
10:00+8nne348993 0.1 1011372
13:00+10ene447227 0.0 1011480
16:00+11e336442 0.0 1010460
19:00+10se2479100 0.0 1009342
22:00+6se229456 0.0 101080
22 may, sat
sat2201:00+6se1292100 0.0 1010174
04:00+6e1193100 0.1 1009120
07:00+7se1191100 0.1 1010196
10:00+9se1180100 0.1 1010354
13:00+11ese2271100 0.0 1010510
16:00+12e3371100 0.0 1009504
19:00+9ese1281100 0.0 1010228
22:00+6se119546 0.0 101112
23 may, sun
sun2301:00+5ssw24955 0.0 1010100
04:00+4sse129770 0.0 101082
07:00+7se118433 0.0 1010217
10:00+12se33669 0.0 1009456
13:00+14sse456422 0.0 1007427
16:00+14sse476920 0.0 1006350
19:00+11sse4780100 0.0 1006238
22:00+9s3489100 0.0 1007114